GSAT0213 (PRN E04)

Last updated on June 17, 2019, 3:37 a.m. UTC

1 41861U 16069C   19166.28642041  .00000068  00000-0  00000-0 0  9996
2 41861  54.6056 172.0741 0005545 273.2448  86.7179  1.70473558 16037
UTC
Height (km)
Latitude
Longitude
Inclination
Orbital Period
UTC large
Height (km)
Speed (km/s)
/
Latitude / Longitude
Inclination (degrees)
Orbital Period (minutes)
Azimuth
Elevation
Range (km)
Doppler Factor
iOS Compass Heading
iOS Angle

Next 30 passes for location: Hong Kong

Rise time Rise Azimuth (degrees) Set time Set Azimuth (degrees) Duration Max altitude (degrees)

No matching passes for this satellites